BEIJING 1 (TSINGHUA) 1 28890U 05043A 24348.47087761 .00000807 00000-0 16731-3 0 9996 2 28890 98.2211 110.3152 0014328 200.9147 159.1470 14.62828037 20095 HJ-1A 1 33320U 08041A 24348.44952671 .00002500 00000-0 32396-3 0 9996 2 33320 97.6342 346.8260 0020696 141.3757 218.8942 14.81524870876885 HJ-1B 1 33321U 08041B 24348.50869195 .00002031 00000-0 26313-3 0 9993 2 33321 97.6263 351.3085 0037290 187.1717 172.8968 14.81393210876919 YAOGAN 4 1 33446U 08061A 24348.40737888 .00001769 00000-0 23398-3 0 9992 2 33446 97.8931 277.1279 0016357 65.7241 294.5678 14.81121059864079 DEIMOS 1 1 35681U 09041A 24348.45120975 .00001372 00000-0 21552-3 0 9992 2 35681 97.6836 160.9395 0002047 128.5449 231.5944 14.74056982825710 DMC 2 1 35683U 09041C 24348.44080243 .00001855 00000-0 28707-3 0 9991 2 35683 97.8047 129.1178 0001060 95.3319 264.8010 14.74370981825413 RISAT 1 1 38248U 12017A 24348.48970100 .00016501 00000-0 53341-3 0 9998 2 38248 97.5102 7.3940 0002318 23.5073 336.6274 15.32159036696971 DMC 3-FM1 1 40715U 15032A 24348.44577037 .00001475 00000-0 18107-3 0 9993 2 40715 97.7226 221.9089 0007139 69.5388 290.6593 14.84503894508162 DMC 3-FM2 1 40716U 15032B 24348.46810008 .00001438 00000-0 17667-3 0 9993 2 40716 97.7282 223.1209 0009018 72.5293 287.6907 14.84500872508168 DMC 3-FM3 1 40717U 15032C 24348.43647539 .00001460 00000-0 17975-3 0 9995 2 40717 97.7335 224.4518 0010431 69.9657 290.2680 14.84405103508169